Regional Weather Roundup
Issued by NWS Newport/Morehead, NC

Current Version | Previous Version | Text Only | Print | Product List | Glossary On
Versions: 1 2 3 4 5 6 7 8 9 10 11 12 13 14 15 16 17 18 19 20 21 22 23 24 25 26 27 28 29 30 31 32 33 34 35 36 37 38 39 40 41 42 43 44 45 46 47 48 49 50
000
ASUS42 KMHX 291412
RWRMHX
WEATHER ROUNDUP FOR EASTERN NORTH CAROLINA
NATIONAL WEATHER SERVICE NEWPORT/MOREHEAD CITY NC
1000 AM EDT SUN MAR 29 2015

NOTE: "FAIR" INDICATES FEW OR NO CLOUDS BELOW 12,000 FEET
WITH NO SIGNIFICANT WEATHER AND/OR OBSTRUCTIONS TO VISIBILITY

NCZ015>017-031-032-045>047-102-103-291500-
NORTH COAST

CITY           SKY/WX    TMP DP  RH WIND       PRES   REMARKS
EDENTON        SUNNY     34  13  41 N15G22    30.42R
ELIZABETH CITY SUNNY     34  13  41 N14G21    30.41R
KITTY HAWK     SUNNY     34  13  41 N5        30.38R
MANTEO         SUNNY     34  12  40 N15G22    30.40R

$$

NCZ045>047-081-094-103-104-291500-
CENTRAL COAST

CITY           SKY/WX    TMP DP  RH WIND       PRES   REMARKS
FRISCO         SUNNY     36  15  42 NW12G25   30.39R
SWANQUARTER      N/A     36 N/A N/A N6G17     30.36S

$$

NCZ095-097-098-100-101-291500-
SOUTHERN COAST

CITY           SKY/WX    TMP DP  RH WIND       PRES   REMARKS
BEAUFORT       SUNNY     37  16  42 N15       30.41S
CEDAR ISLAND     N/A     36 N/A N/A NW20      30.44S
JACKSONVILLE   SUNNY     37  13  37 N15       30.43R
PINEY ISLAND   SUNNY    N/A N/A N/A NW17      30.42R
WILMINGTON     SUNNY     38  14  37 N13       30.45R


$$

NCZ011>013-027>030-043-044-078>080-089-090>093-098-291500-
COASTAL PLAIN

CITY           SKY/WX    TMP DP  RH WIND       PRES   REMARKS
AHOSKIE        SUNNY     32  10  39 NW6       30.44R
CLINTON        SUNNY     37  14  38 N10       30.46R
ELIZABETHTOWN  SUNNY     37  12  35 NE6       30.45S
GOLDSBORO      SUNNY     36  16  43 N14       30.42R
GREENVILLE     SUNNY     34  14  44 N12       30.44R
HAVELOCK       SUNNY     38  15  39 N17G23    30.43R
KENANSVILLE    SUNNY     36  13  39 N9        30.46R
KINSTON        SUNNY     37  14  38 N12       30.44R
NEW BERN       SUNNY     37  15  40 N14       30.44R
RICHLANDS      SUNNY     36  10  35 N12G17    30.45R
ROCKY MOUNT    SUNNY     36  12  37 N12       30.44R
WASHINGTON     SUNNY     34  16  47 N14       30.43S
WHITEVILLE     SUNNY     38  11  32 N7        30.45R

$$

AMZ130-135-150-152-154-156-158-170-250-252-270-ANZ085-086-088-633-658-670-291500-
MARINE OBSERVATIONS

STATION/POSITION TIME  TEMP    WIND        PRES    WAVE   SWELL
                       AIR SEA DIR/SP/G            HT/PER HT/PER
                 (UTC) (F)     (DEG/KT/KT) (MB)    (FT/S) (FT/S)
CHESAPEAKE LIGHT 1300   31     330/ 21/ 23 1028.6
64 E VA BEACH    1350   34 51  330/ 23/ 29 1027.0    7/ 6   2/10
DUCK             1300   31 41  350/ 19/ 21 1027.5
2 E DUCK         1311      42                N/A     4/ 5
10 NE DUCK       NOT AVBL
OREGON INLET     1300   33 44  310/ 17/ 25 1028.1
HATTERAS CG      1300   35 48  340/ 19/ 23 1028.9
CAPE LOOKOUT     1400   35     350/ 16/ 20 1029.2
BEAUFORT LAB     1300   35 53  360/ 13/ 17 1028.7
27 SE WRIGHTSVLE 1300   36 64   40/ 16/ 19 1030.0
5 SE WRIGHTSVLE  1300   37 55   20/ 16/ 17 1029.9
225 S CAPE HAT   1350   56 68  330/ 23/ 29 1025.2   10/ 8
41 SE CHARLESTON 1350   47 67   30/ 19/ 23 1029.4    6/ 6   2/ 9

$$



USA.gov is the U.S. government's official web portal to all federal, state and local government web resources and services.